Terminal Aerodrome Forecast
Issued by NWS Huntsville, AL

Current Version | Previous Version | Text Only | Print | Product List | Glossary On
Versions: 1 2 3 4 5 6 7 8 9 10 11 12 13 14 15 16 17 18 19 20 21 22 23 24 25 26
000
FTUS44 KHUN 021724
TAFHSV
TAF
KHSV 021724Z 0218/0318 04008KT P6SM BKN011 OVC025
     FM022100 06006KT P6SM VCSH BKN015 OVC025
     FM030300 12006KT P6SM VCSH BKN008 OVC015
     FM030800 16008KT 4SM BR VCSH BKN008 OVC015
     FM031400 14007KT 4SM -RA BR BKN007 OVC015=

USA.gov is the U.S. government's official web portal to all federal, state and local government web resources and services.